Location: Melara
(45.0500°N, 11.1833°E)
Time: 13:31:08
(UTC+00:00)

Helios 1B rocket - Visible Passes

Search period start: 26 September 2022 00:00
Search period end: 06 October 2022 00:00
Orbit: 566 x 578 km, 98.2° (Epoch: 25 September)

Date Brightness Start Highest point End Pass type
(mag) Time Alt. Az. Time Alt. Az. Time Alt. Az.
26 Sep 4.5 02:13:00 10° NE 02:16:18 23° E 02:16:58 22° ESE visible
26 Sep 3.2 03:47:49 10° N 03:51:26 31° WNW 03:53:08 22° WSW visible
27 Sep 4.4 02:15:30 10° NE 02:18:52 24° E 02:19:27 23° ESE visible
27 Sep 3.3 03:50:25 10° N 03:53:58 30° WNW 03:55:37 22° WSW visible
28 Sep 4.3 02:17:59 10° NE 02:21:25 26° E 02:21:57 25° ESE visible
28 Sep 3.3 03:52:59 10° N 03:56:30 28° WNW 03:58:06 21° WSW visible
29 Sep 4.2 02:20:27 10° NE 02:23:57 27° E 02:24:25 26° ESE visible
29 Sep 3.4 03:55:34 10° N 03:59:00 27° WNW 04:00:34 21° WSW visible
30 Sep 4.1 02:22:56 10° NE 02:26:30 29° E 02:26:52 28° ESE visible
30 Sep 3.5 03:58:07 10° N 04:01:31 26° WNW 04:03:02 20° W visible
01 Oct 4.0 02:25:24 10° NE 02:29:02 30° E 02:29:19 30° ESE visible
01 Oct 3.5 04:00:42 10° NNW 04:04:00 24° WNW 04:05:29 20° W visible
02 Oct 3.9 02:27:52 10° NNE 02:31:33 32° E 02:31:46 32° ESE visible
02 Oct 3.6 04:03:15 10° NNW 04:06:30 23° WNW 04:07:55 19° W visible
03 Oct 3.9 02:30:19 10° NNE 02:34:03 34° E 02:34:12 34° ESE visible
03 Oct 3.7 04:05:48 10° NNW 04:08:59 22° WNW 04:10:21 19° W visible
04 Oct 3.8 02:32:46 10° NNE 02:36:33 36° E 02:36:37 36° E visible
04 Oct 3.7 04:08:21 10° NNW 04:11:27 21° WNW 04:12:46 18° W visible
05 Oct 3.7 02:35:14 10° NNE 02:39:02 38° E 02:39:02 38° E visible
05 Oct 3.8 04:10:54 10° NNW 04:13:55 20° WNW 04:15:11 18° W visible
